EW7272 Weather Reports


Display with metric or nautical units.
time (UTC)temp
F
wind
direction
speed
MPH
gust
MPH
rain 1hr
in
rain 24hr
in
rain mn
in
humidity
%
barometer
mb
20260509224007 84 88 2.0 9.0 0.00 0.21 0.01 38 1008.1
20260509223510 85 182 4.0 9.0 0.00 0.21 0.01 37 1008.1
20260509223024 85 186 5.0 10.0 0.00 0.21 0.01 36 1008.2
20260509222503 84 144 4.0 10.0 0.00 0.21 0.01 38 1008.2
20260509222006 85 217 5.0 9.0 0.00 0.21 0.01 37 1008.3
20260509221504 84 115 3.0 8.0 0.00 0.21 0.01 38 1008.4
20260509221005 84 78 2.0 7.0 0.00 0.21 0.01 39 1008.3
20260509220501 84 118 1.0 9.0 0.00 0.21 0.01 38 1008.4
20260509220010 85 142 4.0 9.0 0.00 0.21 0.01 38 1008.5
20260509215503 84 108 2.0 9.0 0.00 0.21 0.01 38 1008.4
20260509215008 84 148 5.0 9.0 0.00 0.21 0.01 37 1008.5
20260509214514 85 171 3.0 8.0 0.00 0.21 0.01 39 1008.5
20260509214006 85 88 2.0 8.0 0.00 0.21 0.01 38 1008.5
20260509213507 85 165 3.0 8.0 0.00 0.21 0.01 39 1008.5
20260509213027 84 190 2.0 8.0 0.00 0.21 0.01 38 1008.6
20260509212510 84 203 3.0 9.0 0.00 0.21 0.01 37 1008.6
20260509212002 85 206 3.0 9.0 0.00 0.21 0.01 37 1008.7
20260509211503 85 163 4.0 8.0 0.00 0.21 0.01 37 1008.7
20260509211001 85 181 2.0 8.0 0.00 0.21 0.01 36 1008.7
20260509210503 85 134 4.0 8.0 0.00 0.21 0.01 37 1008.7
20260509210006 85 157 2.0 8.0 0.00 0.21 0.01 37 1008.8
20260509205502 84 234 3.0 8.0 0.00 0.21 0.01 37 1008.8
20260509205010 84 203 2.0 9.0 0.00 0.21 0.01 37 1008.8
20260509204514 84 194 2.0 9.0 0.00 0.21 0.01 36 1008.8
20260509204006 84 147 2.0 8.0 0.00 0.21 0.01 36 1008.9
20260509203509 84 200 1.0 6.0 0.00 0.21 0.01 38 1008.8
20260509203028 84 90 1.0 7.0 0.00 0.21 0.01 37 1008.9
20260509202505 84 210 2.0 7.0 0.00 0.21 0.01 35 1008.9
20260509202012 84 153 3.0 7.0 0.00 0.21 0.01 38 1008.9
20260509201522 83 143 1.0 9.0 0.00 0.21 0.01 38 1009.0
20260509201010 83 60 3.0 9.0 0.00 0.21 0.01 39 1009.1
20260509200513 83 36 4.0 8.0 0.00 0.21 0.01 39 1009.2
20260509200003 83 25 3.0 11.0 0.00 0.21 0.01 39 1009.4
20260509195512 84 55 5.0 10.0 0.00 0.21 0.01 39 1009.6
20260509195004 84 90 3.0 8.0 0.00 0.21 0.01 38 1009.6
20260509194506 84 13 1.0 4.0 0.00 0.21 0.01 40 1009.7
20260509194009 83 13 0.0 5.0 0.00 0.21 0.01 36 1009.7
20260509193508 83 22 2.0 5.0 0.00 0.21 0.01 34 1009.8
20260509193024 83 267 1.0 5.0 0.00 0.21 0.01 39 1009.8
20260509192511 82 165 1.0 5.0 0.00 0.21 0.01 36 1009.8
20260509192007 82 214 2.0 4.0 0.00 0.21 0.01 38 1009.9
20260509191525 82 311 2.0 6.0 0.00 0.21 0.01 37 1009.9
20260509191009 82 242 1.0 8.0 0.00 0.21 0.01 38 1010.0
20260509190512 82 188 5.0 8.0 0.00 0.21 0.01 37 1010.0
20260509190028 82 49 1.0 5.0 0.00 0.21 0.01 38 1010.0
20260509185510 82 102 2.0 9.0 0.00 0.21 0.01 41 1010.1
20260509185009 81 84 3.0 9.0 0.00 0.21 0.01 39 1010.1
20260509184517 81 61 2.0 10.0 0.00 0.21 0.01 40 1010.2
20260509184010 82 186 4.0 10.0 0.00 0.21 0.01 40 1010.4
20260509183503 81 222 2.0 6.0 0.00 0.21 0.01 42 1010.4
20260509183008 81 101 1.0 7.0 0.00 0.21 0.01 42 1010.4
20260509182507 81 153 3.0 10.0 0.00 0.21 0.01 42 1010.4
20260509182008 81 96 2.0 10.0 0.00 0.21 0.01 43 1010.5
20260509181517 81 235 1.0 6.0 0.00 0.21 0.01 39 1010.6
20260509181011 81 212 2.0 6.0 0.00 0.21 0.01 39 1010.7
20260509180508 81 212 2.0 5.0 0.00 0.21 0.01 40 1010.7
20260509180020 80 182 0.0 5.0 0.00 0.21 0.01 42 1010.9
20260509175513 80 249 1.0 7.0 0.00 0.21 0.01 40 1011.0
20260509175008 79 163 2.0 7.0 0.00 0.21 0.01 42 1011.1
20260509174524 79 211 4.0 7.0 0.00 0.21 0.01 43 1011.1
20260509174009 79 157 0.0 6.0 0.00 0.21 0.01 45 1011.2
20260509173517 79 225 3.0 9.0 0.00 0.21 0.01 47 1011.3
20260509173008 79 151 5.0 9.0 0.00 0.21 0.01 47 1011.4
20260509172506 79 195 4.0 7.0 0.00 0.21 0.01 49 1011.5
20260509172006 79 18 2.0 6.0 0.00 0.21 0.01 49 1011.6
20260509171526 79 117 2.0 7.0 0.00 0.21 0.01 47 1011.6
20260509171010 78 145 3.0 7.0 0.00 0.21 0.01 50 1011.7
20260509170507 77 207 1.0 8.0 0.00 0.21 0.01 52 1011.7
20260509170023 77 180 2.0 8.0 0.00 0.21 0.01 55 1011.8
20260509165508 77 185 4.0 9.0 0.00 0.21 0.01 55 1011.8
20260509165010 77 192 4.0 9.0 0.00 0.21 0.01 57 1011.9
20260509164521 77 180 3.0 8.0 0.00 0.21 0.01 59 1011.9
20260509164011 76 163 3.0 8.0 0.00 0.21 0.01 54 1011.9
20260509163510 76 178 4.0 9.0 0.00 0.21 0.01 58 1012.0
20260509163037 76 228 5.0 9.0 0.00 0.21 0.01 57 1011.9
20260509162510 76 186 4.0 8.0 0.00 0.21 0.01 58 1011.9
20260509162010 76 180 2.0 7.0 0.00 0.21 0.01 61 1011.9
20260509161526 76 205 2.0 8.0 0.00 0.21 0.01 64 1011.9
20260509161003 75 176 2.0 8.0 0.00 0.21 0.01 62 1011.8
20260509160507 75 136 3.0 8.0 0.00 0.21 0.01 64 1011.8
20260509160014 74 189 4.0 8.0 0.00 0.21 0.01 62 1011.8
20260509155506 74 191 3.0 8.0 0.00 0.21 0.01 65 1011.9
20260509155007 74 197 3.0 8.0 0.00 0.21 0.01 67 1011.8
20260509154524 73 126 3.0 9.0 0.00 0.21 0.01 66 1011.9
20260509154012 73 159 4.0 10.0 0.00 0.21 0.01 67 1011.9
20260509153507 73 207 4.0 10.0 0.00 0.21 0.01 67 1011.8
20260509153039 74 199 5.0 10.0 0.01 0.21 0.01 69 1011.8
20260509152510 74 120 2.0 8.0 0.01 0.21 0.01 66 1011.8
20260509152012 74 132 2.0 8.0 0.01 0.21 0.01 66 1011.8
20260509151528 74 175 3.0 9.0 0.01 0.21 0.01 67 1011.9
20260509151006 73 128 4.0 9.0 0.01 0.21 0.01 66 1012.0
20260509150510 73 166 3.0 7.0 0.01 0.21 0.01 65 1012.0
20260509150026 73 169 1.0 5.0 0.01 0.21 0.01 69 1011.9
20260509145504 72 161 2.0 7.0 0.01 0.21 0.01 71 1011.7
20260509145008 71 135 2.0 7.0 0.01 0.21 0.01 74 1011.5
20260509144519 70 107 2.0 9.0 0.01 0.21 0.01 77 1011.4
20260509144010 69 50 3.0 10.0 0.01 0.21 0.01 79 1011.4
20260509143505 69 69 4.0 10.0 0.01 0.21 0.01 80 1011.3
20260509143020 68 50 4.0 8.0 0.00 0.20 0.00 82 1011.3
20260509142505 68 73 2.0 6.0 0.00 0.20 0.00 84 1011.4
20260509142009 67 68 2.0 6.0 0.00 0.20 0.00 83 1011.4
20260509141526 67 40 3.0 8.0 0.00 0.20 0.00 83 1011.3
20260509141009 67 49 5.0 8.0 0.00 0.20 0.00 84 1011.3
20260509140509 67 50 3.0 8.0 0.00 0.20 0.00 87 1011.3
20260509140025 66 34 3.0 6.0 0.00 0.20 0.00 88 1011.4
20260509135509 65 61 3.0 5.0 0.00 0.20 0.00 88 1011.3
20260509135011 65 48 2.0 4.0 0.00 0.20 0.00 89 1011.4
20260509134526 65 49 2.0 3.0 0.00 0.20 0.00 89 1011.3
20260509134007 65 180 0.0 2.0 0.00 0.20 0.00 90 1011.4
20260509133507 64 180 0.0 2.0 0.00 0.20 0.00 91 1011.4
20260509133016 64 231 0.0 2.0 0.00 0.20 0.00 91 1011.3
20260509132504 63 231 0.0 2.0 0.00 0.20 0.00 92 1011.2
20260509132007 63 231 0.0 1.0 0.00 0.20 0.00 92 1011.2
20260509131503 62 231 0.0 1.0 0.00 0.20 0.00 92 1011.2
20260509131001 62 231 0.0 1.0 0.00 0.20 0.00 92 1011.0
20260509130503 61 231 0.0 1.0 0.00 0.20 0.00 93 1011.0
20260509130028 60 231 0.0 1.0 0.00 0.20 0.00 93 1010.9
20260509125503 60 231 0.0 2.0 0.00 0.20 0.00 93 1010.9
20260509125008 59 231 0.0 2.0 0.00 0.20 0.00 92 1010.8
20260509124509 59 231 0.0 2.0 0.00 0.20 0.00 93 1010.8
20260509124006 58 231 0.0 1.0 0.00 0.20 0.00 93 1010.7
20260509123504 58 360 0.0 1.0 0.00 0.20 0.00 93 1010.6
20260509123017 57 360 0.0 1.0 0.00 0.20 0.00 93 1010.6
20260509122509 57 360 0.0 1.0 0.00 0.20 0.00 92 1010.6
20260509122007 57 360 0.0 1.0 0.00 0.20 0.00 93 1010.5
20260509121513 56 360 0.0 2.0 0.00 0.20 0.00 92 1010.6
20260509121007 56 360 0.0 2.0 0.00 0.20 0.00 92 1010.6
20260509120504 56 360 0.0 2.0 0.00 0.20 0.00 92 1010.5
20260509120003 56 360 1.0 2.0 0.00 0.20 0.00 92 1010.5
20260509115505 55 360 0.0 1.0 0.00 0.20 0.00 92 1010.4
20260509115006 55 360 0.0 1.0 0.00 0.20 0.00 92 1010.4
20260509114506 55 360 0.0 0.0 0.00 0.20 0.00 92 1010.2
20260509114006 55 360 0.0 1.0 0.00 0.20 0.00 92 1010.1
20260509113509 55 360 0.0 1.0 0.00 0.20 0.00 92 1010.1
20260509113012 55 360 0.0 1.0 0.00 0.20 0.00 92 1010.1
20260509112507 55 360 0.0 1.0 0.00 0.20 0.00 92 1010.0
20260509112009 55 360 0.0 1.0 0.00 0.20 0.00 92 1010.0
20260509111514 55 360 0.0 2.0 0.00 0.20 0.00 92 1009.9
20260509111012 55 360 0.0 2.0 0.00 0.20 0.00 92 1009.8
20260509110505 55 360 1.0 2.0 0.00 0.20 0.00 92 1009.9
20260509110016 55 360 0.0 2.0 0.00 0.20 0.00 92 1009.9
20260509105508 55 360 0.0 2.0 0.00 0.20 0.00 92 1009.8
20260509105003 55 360 0.0 3.0 0.00 0.20 0.00 92 1009.7
20260509104509 55 360 1.0 3.0 0.00 0.20 0.00 92 1009.7
20260509104003 55 360 1.0 3.0 0.00 0.20 0.00 92 1009.7
20260509103502 55 360 0.0 1.0 0.00 0.20 0.00 92 1009.7
20260509103007 55 360 0.0 1.0 0.00 0.20 0.00 92 1009.8
20260509102509 55 360 0.0 1.0 0.00 0.20 0.00 91 1009.9
20260509102007 56 360 0.0 0.0 0.00 0.20 0.00 91 1009.9
20260509101523 56 360 0.0 0.0 0.00 0.20 0.00 91 1010.0
20260509101008 56 360 0.0 0.0 0.00 0.20 0.00 91 1010.1
20260509100507 56 360 0.0 0.0 0.00 0.20 0.00 92 1010.3
20260509100025 56 360 0.0 0.0 0.00 0.20 0.00 92 1010.4
20260509095509 56 360 0.0 1.0 0.00 0.20 0.00 91 1010.4
20260509095007 56 360 0.0 2.0 0.00 0.20 0.00 91 1010.5
20260509094520 57 360 0.0 3.0 0.00 0.20 0.00 91 1010.4
20260509094007 57 360 1.0 3.0 0.00 0.20 0.00 92 1010.4
20260509093508 57 360 0.0 2.0 0.00 0.20 0.00 91 1010.4
20260509093024 57 360 0.0 1.0 0.00 0.20 0.00 91 1010.4
20260509092507 57 360 0.0 2.0 0.00 0.20 0.00 91 1010.4
20260509092006 57 360 0.0 2.0 0.00 0.20 0.00 91 1010.5
20260509091512 57 360 0.0 1.0 0.00 0.20 0.00 91 1010.4
20260509091007 57 360 0.0 0.0 0.00 0.20 0.00 91 1010.3
20260509090510 57 360 0.0 0.0 0.00 0.20 0.00 91 1010.3
20260509090027 57 360 0.0 2.0 0.00 0.20 0.00 91 1010.4
20260509085508 58 360 0.0 2.0 0.00 0.20 0.00 91 1010.3
20260509085009 58 360 0.0 1.0 0.00 0.20 0.00 91 1010.3
20260509084521 58 360 0.0 0.0 0.00 0.20 0.00 91 1010.4
20260509084012 58 360 0.0 0.0 0.00 0.20 0.00 91 1010.4
20260509083509 58 360 0.0 0.0 0.00 0.20 0.00 91 1010.4
20260509083034 58 360 0.0 0.0 0.00 0.20 0.00 91 1010.5
20260509082514 58 360 0.0 0.0 0.00 0.20 0.00 91 1010.4
20260509082007 58 360 0.0 0.0 0.00 0.20 0.00 90 1010.4
20260509081524 58 360 0.0 0.0 0.00 0.20 0.00 91 1010.5
20260509081005 59 360 0.0 2.0 0.00 0.20 0.00 90 1010.6
20260509080507 59 360 0.0 2.0 0.00 0.20 0.00 90 1010.7
20260509080015 59 360 0.0 0.0 0.00 0.20 0.00 90 1010.8
20260509075507 59 360 0.0 1.0 0.00 0.20 0.00 90 1010.8
20260509075009 59 360 0.0 3.0 0.00 0.20 0.00 90 1010.8
20260509074524 59 360 0.0 3.0 0.00 0.20 0.00 90 1010.7
20260509074011 60 360 0.0 2.0 0.00 0.20 0.00 90 1010.7
20260509073508 60 360 0.0 0.0 0.00 0.20 0.00 90 1010.7
20260509073029 60 360 0.0 1.0 0.00 0.20 0.00 90 1010.7
20260509072509 60 360 0.0 1.0 0.00 0.20 0.00 90 1010.8
20260509072009 60 360 0.0 2.0 0.00 0.20 0.00 90 1010.8
20260509071530 60 360 0.0 2.0 0.00 0.20 0.00 90 1010.9
20260509071011 60 360 0.0 2.0 0.00 0.20 0.00 90 1010.9
20260509070509 60 360 0.0 2.0 0.00 0.20 0.00 90 1010.9
20260509070025 60 360 0.0 1.0 0.00 0.20 0.00 90 1010.9
20260509065505 60 360 0.0 1.0 0.00 0.20 0.00 89 1010.9
20260509065011 60 360 0.0 1.0 0.00 0.20 0.00 89 1011.0
20260509064516 61 360 0.0 1.0 0.00 0.20 0.00 89 1011.0
20260509064010 61 360 0.0 1.0 0.00 0.20 0.00 89 1011.0
20260509063511 61 360 0.0 0.0 0.00 0.20 0.00 89 1011.1
20260509063023 61 360 0.0 0.0 0.00 0.20 0.00 89 1011.2
20260509062510 61 360 0.0 0.0 0.00 0.20 0.00 89 1011.3
20260509062010 61 360 0.0 1.0 0.00 0.20 0.00 89 1011.2
20260509061525 61 360 0.0 2.0 0.00 0.20 0.00 89 1011.2
20260509061012 61 360 0.0 2.0 0.00 0.20 0.00 89 1011.3
20260509060507 61 360 0.0 2.0 0.00 0.20 0.00 89 1011.3
20260509060024 61 360 0.0 2.0 0.00 0.20 0.00 89 1011.4
20260509055511 61 360 0.0 2.0 0.00 0.20 0.00 89 1011.5
20260509055007 62 360 0.0 1.0 0.00 0.20 0.00 89 1011.5
20260509054530 62 360 0.0 1.0 0.00 0.20 0.00 89 1011.4
20260509054006 62 360 0.0 3.0 0.00 0.20 0.00 89 1011.4
20260509053506 62 360 0.0 6.0 0.00 0.20 0.00 89 1011.3
20260509053018 62 360 2.0 6.0 0.00 0.20 0.00 90 1011.2
20260509052507 62 360 3.0 6.0 0.00 0.20 0.00 90 1011.2
20260509052008 62 360 2.0 4.0 0.00 0.20 0.00 90 1011.1
20260509051525 62 360 2.0 4.0 0.00 0.20 0.00 90 1011.0
20260509051009 62 360 2.0 5.0 0.00 0.20 0.00 90 1011.0
20260509050511 62 360 3.0 5.0 0.00 0.20 0.00 90 1011.0
20260509050026 62 360 3.0 9.0 0.00 0.20 0.00 90 1010.9
20260509045519 62 360 4.0 10.0 0.00 0.20 0.20 90 1010.8
20260509045010 61 360 3.0 10.0 0.00 0.20 0.20 90 1010.6
20260509044528 61 360 6.0 10.0 0.00 0.20 0.20 89 1010.6
20260509044013 61 360 2.0 4.0 0.00 0.20 0.20 89 1010.4
20260509043509 61 360 1.0 3.0 0.00 0.20 0.20 89 1010.4
20260509043030 62 360 1.0 3.0 0.00 0.20 0.20 89 1010.4
20260509042507 62 360 1.0 2.0 0.00 0.20 0.20 88 1010.4
20260509042010 62 360 0.0 2.0 0.00 0.20 0.20 88 1010.2
20260509041527 62 360 1.0 3.0 0.00 0.20 0.20 88 1010.1
20260509041011 62 360 0.0 3.0 0.00 0.20 0.20 88 1010.1
20260509040502 63 360 0.0 2.0 0.00 0.20 0.20 87 1010.1
20260509040029 63 360 0.0 1.0 0.00 0.20 0.20 88 1010.3
20260509035509 63 360 0.0 2.0 0.00 0.20 0.20 88 1010.1
20260509035004 63 360 0.0 2.0 0.00 0.20 0.20 88 1010.2
20260509034508 63 360 0.0 2.0 0.00 0.20 0.20 87 1010.2
20260509034012 63 360 0.0 2.0 0.00 0.20 0.20 87 1010.1
20260509033503 63 360 1.0 2.0 0.00 0.20 0.20 87 1010.1
20260509033010 64 360 0.0 0.0 0.00 0.20 0.20 86 1009.9
20260509032507 64 360 0.0 1.0 0.00 0.20 0.20 87 1009.9
20260509032008 64 360 0.0 2.0 0.00 0.20 0.20 87 1009.7
20260509031515 64 360 0.0 3.0 0.00 0.20 0.20 86 1009.7
20260509031008 64 360 1.0 3.0 0.00 0.20 0.20 87 1009.6
20260509030514 64 360 0.0 2.0 0.00 0.20 0.20 86 1009.6
20260509030032 64 360 0.0 2.0 0.00 0.20 0.20 85 1009.5
20260509025507 64 360 0.0 2.0 0.00 0.20 0.20 85 1009.3
20260509025009 64 360 0.0 2.0 0.00 0.20 0.20 85 1009.2
20260509024507 65 360 0.0 2.0 0.00 0.20 0.20 84 1009.2
20260509024003 65 360 0.0 2.0 0.00 0.20 0.20 84 1009.1
20260509023504 65 360 0.0 3.0 0.00 0.20 0.20 83 1008.9
20260509023008 66 360 0.0 3.0 0.00 0.20 0.20 83 1008.9
20260509022504 66 360 1.0 3.0 0.00 0.20 0.20 82 1008.8
20260509022007 67 360 0.0 2.0 0.00 0.20 0.20 81 1008.8
20260509021514 67 360 0.0 2.0 0.00 0.20 0.20 81 1008.9
20260509021004 67 360 0.0 3.0 0.00 0.20 0.20 81 1008.9
20260509020507 67 360 1.0 4.0 0.00 0.20 0.20 81 1008.8
20260509020018 67 360 1.0 4.0 0.00 0.20 0.20 81 1008.8
20260509015507 66 360 2.0 4.0 0.00 0.20 0.20 82 1008.8
20260509015011 66 360 1.0 4.0 0.00 0.20 0.20 83 1008.8
20260509014522 66 360 1.0 6.0 0.00 0.20 0.20 84 1008.8
20260509014010 66 360 1.0 6.0 0.00 0.20 0.20 84 1008.6
20260509013510 66 360 3.0 6.0 0.00 0.20 0.20 84 1008.5
20260509013028 66 360 1.0 2.0 0.00 0.20 0.20 84 1008.3
20260509012507 66 360 1.0 2.0 0.00 0.20 0.20 84 1008.1
20260509012007 66 360 0.0 2.0 0.00 0.20 0.20 83 1008.1
20260509011511 66 360 0.0 4.0 0.00 0.20 0.20 83 1008.0
20260509011004 66 360 0.0 5.0 0.00 0.20 0.20 83 1008.0
20260509010506 67 360 2.0 5.0 0.00 0.20 0.20 82 1007.9
20260509010014 67 360 3.0 5.0 0.00 0.20 0.20 82 1007.8
20260509005507 67 360 1.0 2.0 0.00 0.20 0.20 81 1007.7
20260509005006 67 360 0.0 2.0 0.00 0.20 0.20 82 1007.7
20260509004525 66 360 0.0 4.0 0.00 0.20 0.20 81 1007.6
20260509004008 66 360 1.0 5.0 0.00 0.20 0.20 81 1007.4
20260509003508 66 360 3.0 6.0 0.00 0.20 0.20 81 1007.2
20260509003026 66 360 2.0 8.0 0.00 0.20 0.20 81 1007.1
20260509002512 67 360 2.0 9.0 0.00 0.20 0.20 81 1007.0
20260509002008 68 360 4.0 9.0 0.08 0.20 0.20 81 1006.9
20260509001511 68 153 1.0 3.0 0.18 0.20 0.20 83 1006.7
20260509001004 68 153 0.0 5.0 0.18 0.20 0.20 83 1006.4
20260509000504 68 153 1.0 5.0 0.18 0.20 0.20 83 1006.4
20260509000012 68 213 3.0 6.0 0.18 0.20 0.20 83 1006.5
20260508235507 68 227 1.0 6.0 0.18 0.20 0.20 83 1006.4
20260508235008 67 252 3.0 5.0 0.20 0.20 0.20 84 1006.5
20260508234517 66 138 0.0 11.0 0.20 0.20 0.20 82 1006.5
20260508234009 66 360 0.0 16.0 0.20 0.20 0.20 81 1006.6
20260508233510 65 360 8.0 16.0 0.20 0.20 0.20 81 1007.0
20260508233020 65 360 9.0 32.0 0.20 0.20 0.20 79 1007.0
20260508232509 64 360 2.0 32.0 0.20 0.20 0.20 78 1006.6
20260508232009 64 360 7.0 16.0 0.12 0.12 0.12 81 1007.7
20260508231524 65 360 3.0 6.0 0.02 0.02 0.02 81 1007.0
20260508231010 65 360 2.0 5.0 0.02 0.02 0.02 81 1006.6
20260508230511 65 360 1.0 15.0 0.02 0.02 0.02 80 1006.5
20260508230026 66 360 2.0 15.0 0.02 0.02 0.02 77 1006.8
20260508225508 68 360 7.0 27.0 0.02 0.02 0.02 70 1006.9
20260508225008 72 352 9.0 27.0 0.00 0.00 0.00 61 1006.8
20260508224517 80 25 11.0 21.0 0.00 0.00 0.00 47 1007.0